This is the latest recevied weather packets stored in our database for station/object N8DMH-13. If no packets are shown the sender has not sent any weather packets the latest 10 day(s).
| Time | Temp. | Humidity | Pressure | Rain* | Wind** | Luminosity | Snow |
|---|---|---|---|---|---|---|---|
| 1777911276 | 21.67° C | 33% | 996.1 hPa | 0 mm | - | - | - |
| 1777910976 | 21.67° C | 34% | 996.1 hPa | 0 mm | - | - | - |
| 1777910646 | 21.67° C | 35% | 996.3 hPa | 0 mm | - | - | - |
| 1777910316 | 21.67° C | 36% | 996.3 hPa | 0 mm | - | - | - |
| 1777910016 | 21.11° C | 38% | 996.4 hPa | 0 mm | - | - | - |
| 1777909716 | 21.11° C | 35% | 996.4 hPa | 0 mm | - | - | - |
| 1777909416 | 21.11° C | 39% | 996.5 hPa | 0 mm | - | - | - |
| 1777909086 | 21.11° C | 38% | 996.5 hPa | 0 mm | - | - | - |
| 1777908786 | 21.11° C | 37% | 996.7 hPa | 0 mm | - | - | - |
| 1777908456 | 20.56° C | 38% | 996.9 hPa | 0 mm | - | - | - |
| 1777908155 | 20.56° C | 38% | 996.9 hPa | 0 mm | - | - | - |
| 1777907856 | 20.56° C | 40% | 997.1 hPa | 0 mm | - | - | - |
| 1777907526 | 20.56° C | 40% | 997.2 hPa | 0 mm | - | - | - |
| 1777907225 | 20.56° C | 43% | 997.3 hPa | 0 mm | - | - | - |
| 1777906925 | 20.56° C | 42% | 997.3 hPa | 0 mm | - | - | - |
| 1777906625 | 20.56° C | 44% | 997.4 hPa | 0 mm | - | - | - |
| 1777906295 | 20° C | 44% | 997.5 hPa | 0 mm | - | - | - |
| 1777905995 | 20° C | 44% | 997.5 hPa | 0 mm | - | - | - |
| 1777905695 | 20° C | 45% | 997.4 hPa | 0 mm | - | - | - |
| 1777905364 | 19.44° C | 46% | 997.5 hPa | 0 mm | - | - | - |
| 1777905064 | 19.44° C | 45% | 997.6 hPa | 0 mm | - | - | - |
| 1777904764 | 18.89° C | 47% | 997.6 hPa | 0 mm | - | - | - |
| 1777904434 | 18.33° C | 45% | 997.8 hPa | 0 mm | - | - | - |
| 1777904134 | 18.33° C | 50% | 997.9 hPa | 0 mm | - | - | - |
| 1777903804 | 17.78° C | 53% | 998 hPa | 0 mm | - | - | - |
* Rain latest hour (hover to see other rain measurements)
** Current wind speed in m/s (hover to see current wind gust speed)